owner,sensor,date,latitude,longitude,vertical_datum,wind_speed,wind_to_direction,wind_speed_of_gust,qcFlag 
TCOON,ioos:station:TCOON:057:1,2013-04-01T00:00:00Z,28.4460,-96.3961,0.0,2.6,40.0,,'1111122,1111122,1111122' 
TCOON,ioos:station:TCOON:057:1,2013-04-01T01:00:00Z,28.4460,-96.3961,0.0,5.1,80.0,,'1111122,1111122,1111122' 
TCOON,ioos:station:TCOON:057:1,2013-04-01T02:00:00Z,28.4460,-96.3961,0.0,5.7,130.0,,'1111122,1111122,1111122' 
TCOON,ioos:station:TCOON:057:1,2013-04-01T03:00:00Z,28.4460,-96.3961,0.0,8.7,120.0,,'1111122,1111122,1111122' 
TCOON,ioos:station:TCOON:057:1,2013-04-01T04:00:00Z,28.4460,-96.3961,0.0,8.7,140.0,,'1111122,1111122,1111122' 
TCOON,ioos:station:TCOON:057:1,2013-04-01T05:00:00Z,28.4460,-96.3961,0.0,6.7,120.0,,'1111122,1111122,1111122' 
TCOON,ioos:station:TCOON:057:1,2013-04-01T06:00:00Z,28.4460,-96.3961,0.0,6.2,140.0,,'1111122,1111122,1111122' 
TCOON,ioos:station:TCOON:057:1,2013-04-01T07:00:00Z,28.4460,-96.3961,0.0,3.6,190.0,,'1111122,1111122,1111122' 
TCOON,ioos:station:TCOON:057:1,2013-04-01T08:00:00Z,28.4460,-96.3961,0.0,1.0,270.0,,'1111122,1111122,1111122' 
TCOON,ioos:station:TCOON:057:1,2013-04-01T09:00:00Z,28.4460,-96.3961,0.0,0.5,240.0,,'1111122,1111122,1111122' 
TCOON,ioos:station:TCOON:057:1,2013-04-01T10:00:00Z,28.4460,-96.3961,0.0,1.0,190.0,,'1111122,1111122,1111122' 
TCOON,ioos:station:TCOON:057:1,2013-04-01T11:00:00Z,28.4460,-96.3961,0.0,1.0,110.0,,'1111122,1111122,1111122' 
TCOON,ioos:station:TCOON:057:1,2013-04-01T12:00:00Z,28.4460,-96.3961,0.0,4.6,40.0,,'1111122,1111122,1111122' 
TCOON,ioos:station:TCOON:057:1,2013-04-01T13:00:00Z,28.4460,-96.3961,0.0,6.2,60.0,,'1111122,1111122,1111122' 
TCOON,ioos:station:TCOON:057:1,2013-04-01T14:00:00Z,28.4460,-96.3961,0.0,5.7,60.0,,'1111122,1111122,1111122' 
TCOON,ioos:station:TCOON:057:1,2013-04-01T15:00:00Z,28.4460,-96.3961,0.0,5.7,60.0,,'1111122,1111122,1111122' 
TCOON,ioos:station:TCOON:057:1,2013-04-01T16:00:00Z,28.4460,-96.3961,0.0,6.2,100.0,,'1111122,1111122,1111122' 
TCOON,ioos:station:TCOON:057:1,2013-04-01T17:00:00Z,28.4460,-96.3961,0.0,7.7,100.0,,'1111122,1111122,1111122' 
TCOON,ioos:station:TCOON:057:1,2013-04-01T18:00:00Z,28.4460,-96.3961,0.0,7.2,110.0,,'1111122,1111122,1111122' 
TCOON,ioos:station:TCOON:057:1,2013-04-01T19:00:00Z,28.4460,-96.3961,0.0,7.7,120.0,,'1111122,1111122,1111122' 
TCOON,ioos:station:TCOON:057:1,2013-04-01T20:00:00Z,28.4460,-96.3961,0.0,8.7,120.0,,'1111122,1111122,1111122' 
TCOON,ioos:station:TCOON:057:1,2013-04-01T21:00:00Z,28.4460,-96.3961,0.0,8.7,120.0,,'1111122,1111122,1111122' 
TCOON,ioos:station:TCOON:057:1,2013-04-01T22:00:00Z,28.4460,-96.3961,0.0,7.7,120.0,,'1111122,1111122,1111122' 
TCOON,ioos:station:TCOON:057:1,2013-04-01T23:00:00Z,28.4460,-96.3961,0.0,7.7,110.0,,'1111122,1111122,1111122' 
TCOON,ioos:station:TCOON:057:1,2013-04-02T00:00:00Z,28.4460,-96.3961,0.0,7.7,110.0,,'1111122,1111122,1111122' 
TCOON,ioos:station:TCOON:057:1,2013-04-02T01:00:00Z,28.4460,-96.3961,0.0,8.0,112.0,9.3,'11111222,11111222,11111222' 
TCOON,ioos:station:TCOON:057:1,2013-04-02T02:00:00Z,28.4460,-96.3961,0.0,6.7,120.0,,'1111122,1111122,1111122' 
TCOON,ioos:station:TCOON:057:1,2013-04-02T03:00:00Z,28.4460,-96.3961,0.0,5.4,108.0,6.8,'11111222,11111222,11111222' 
TCOON,ioos:station:TCOON:057:1,2013-04-02T04:00:00Z,28.4460,-96.3961,0.0,5.7,90.0,,'1111122,1111122,1111122' 
TCOON,ioos:station:TCOON:057:1,2013-04-02T05:00:00Z,28.4460,-96.3961,0.0,6.2,100.0,,'1111122,1111122,1111122' 
TCOON,ioos:station:TCOON:057:1,2013-04-02T06:00:00Z,28.4460,-96.3961,0.0,5.1,110.0,,'1111122,1111122,1111122' 
TCOON,ioos:station:TCOON:057:1,2013-04-02T07:00:00Z,28.4460,-96.3961,0.0,4.6,140.0,,'1111122,1111122,1111122' 
TCOON,ioos:station:TCOON:057:1,2013-04-02T08:00:00Z,28.4460,-96.3961,0.0,7.7,100.0,,'1111122,1111122,1111122' 
TCOON,ioos:station:TCOON:057:1,2013-04-02T09:00:00Z,28.4460,-96.3961,0.0,7.7,140.0,,'1111122,1111122,1111122' 
TCOON,ioos:station:TCOON:057:1,2013-04-02T10:00:00Z,28.4460,-96.3961,0.0,4.6,110.0,,'1111122,1111122,1111122' 
TCOON,ioos:station:TCOON:057:1,2013-04-02T11:00:00Z,28.4460,-96.3961,0.0,4.6,140.0,,'1111122,1111122,1111122' 
TCOON,ioos:station:TCOON:057:1,2013-04-02T12:00:00Z,28.4460,-96.3961,0.0,2.6,80.0,,'1111122,1111122,1111122' 
TCOON,ioos:station:TCOON:057:1,2013-04-02T13:00:00Z,28.4460,-96.3961,0.0,10.3,70.0,,'1111122,1111122,1111122' 
TCOON,ioos:station:TCOON:057:1,2013-04-02T14:00:00Z,28.4460,-96.3961,0.0,4.8,95.0,5.6,'11111222,11111222,11111222' 
TCOON,ioos:station:TCOON:057:1,2013-04-02T15:00:00Z,28.4460,-96.3961,0.0,6.6,85.0,7.7,'11111222,11111222,11111222' 
TCOON,ioos:station:TCOON:057:1,2013-04-02T16:00:00Z,28.4460,-96.3961,0.0,6.7,92.0,7.8,'11111222,11111222,11111222' 
TCOON,ioos:station:TCOON:057:1,2013-04-02T17:00:00Z,28.4460,-96.3961,0.0,4.5,87.0,5.3,'11111222,11111222,11111222' 
TCOON,ioos:station:TCOON:057:1,2013-04-02T18:00:00Z,28.4460,-96.3961,0.0,4.9,116.0,5.6,'11111222,11111222,11111222' 
TCOON,ioos:station:TCOON:057:1,2013-04-02T19:00:00Z,28.4460,-96.3961,0.0,5.2,118.0,5.9,'11111222,11111222,11111222' 
TCOON,ioos:station:TCOON:057:1,2013-04-02T20:00:00Z,28.4460,-96.3961,0.0,5.8,111.0,7.1,'11111222,11111222,11111222' 
TCOON,ioos:station:TCOON:057:1,2013-04-02T21:00:00Z,28.4460,-96.3961,0.0,6.0,108.0,6.9,'11111222,11111222,11111222' 
TCOON,ioos:station:TCOON:057:1,2013-04-02T22:00:00Z,28.4460,-96.3961,0.0,7.7,110.0,8.3,'11111222,11111222,11111222' 
TCOON,ioos:station:TCOON:057:1,2013-04-02T23:00:00Z,28.4460,-96.3961,0.0,8.0,92.0,9.3,'11111222,11111222,11111222' 
TCOON,ioos:station:TCOON:057:1,2013-04-03T00:00:00Z,28.4460,-96.3961,0.0,8.9,89.0,10.5,'11111222,11111222,11111222' 
TCOON,ioos:station:TCOON:057:1,2013-04-03T01:00:00Z,28.4460,-96.3961,0.0,10.3,95.0,11.5,'11111222,11111222,11111222' 
TCOON,ioos:station:TCOON:057:1,2013-04-03T02:00:00Z,28.4460,-96.3961,0.0,8.9,82.0,10.7,'11111222,11111222,11111222' 
TCOON,ioos:station:TCOON:057:1,2013-04-03T03:00:00Z,28.4460,-96.3961,0.0,8.5,74.0,9.6,'11111222,11111222,11111222' 
TCOON,ioos:station:TCOON:057:1,2013-04-03T04:00:00Z,28.4460,-96.3961,0.0,6.7,47.0,7.9,'11111222,11111222,11111222' 
TCOON,ioos:station:TCOON:057:1,2013-04-03T05:00:00Z,28.4460,-96.3961,0.0,6.7,59.0,8.4,'11111222,11111222,11111222' 
TCOON,ioos:station:TCOON:057:1,2013-04-03T06:00:00Z,28.4460,-96.3961,0.0,5.7,42.0,6.8,'11111222,11111222,11111222' 
TCOON,ioos:station:TCOON:057:1,2013-04-03T07:00:00Z,28.4460,-96.3961,0.0,5.9,2.0,7.7,'11111222,11111222,11111222' 
TCOON,ioos:station:TCOON:057:1,2013-04-03T08:00:00Z,28.4460,-96.3961,0.0,9.3,355.0,10.3,'11111222,11111222,11111222' 
TCOON,ioos:station:TCOON:057:1,2013-04-03T09:00:00Z,28.4460,-96.3961,0.0,8.7,40.0,,'1111122,1111122,1111122' 
TCOON,ioos:station:TCOON:057:1,2013-04-03T10:00:00Z,28.4460,-96.3961,0.0,7.2,80.0,,'1111122,1111122,1111122' 
TCOON,ioos:station:TCOON:057:1,2013-04-03T11:00:00Z,28.4460,-96.3961,0.0,6.3,40.0,8.0,'11111222,11111222,11111222' 
TCOON,ioos:station:TCOON:057:1,2013-04-03T12:00:00Z,28.4460,-96.3961,0.0,9.1,353.0,11.5,'11111222,11111222,11111222' 
TCOON,ioos:station:TCOON:057:1,2013-04-03T13:00:00Z,28.4460,-96.3961,0.0,7.8,20.0,9.2,'11111222,11111222,11111222' 
TCOON,ioos:station:TCOON:057:1,2013-04-03T14:00:00Z,28.4460,-96.3961,0.0,8.9,19.0,10.5,'11111222,11111222,11111222' 
TCOON,ioos:station:TCOON:057:1,2013-04-03T15:00:00Z,28.4460,-96.3961,0.0,9.1,20.0,10.4,'11111222,11111222,11111222' 
TCOON,ioos:station:TCOON:057:1,2013-04-03T16:00:00Z,28.4460,-96.3961,0.0,8.7,3.0,9.8,'11111222,11111222,11111222' 
TCOON,ioos:station:TCOON:057:1,2013-04-03T17:00:00Z,28.4460,-96.3961,0.0,8.2,25.0,9.8,'11111222,11111222,11111222' 
TCOON,ioos:station:TCOON:057:1,2013-04-03T18:00:00Z,28.4460,-96.3961,0.0,8.6,22.0,9.7,'11111222,11111222,11111222' 
TCOON,ioos:station:TCOON:057:1,2013-04-03T19:00:00Z,28.4460,-96.3961,0.0,8.8,9.0,9.9,'11111222,11111222,11111222' 
TCOON,ioos:station:TCOON:057:1,2013-04-03T20:00:00Z,28.4460,-96.3961,0.0,8.9,3.0,10.0,'11111222,11111222,11111222' 
TCOON,ioos:station:TCOON:057:1,2013-04-03T21:00:00Z,28.4460,-96.3961,0.0,10.1,5.0,12.1,'11111222,11111222,11111222' 
TCOON,ioos:station:TCOON:057:1,2013-04-03T22:00:00Z,28.4460,-96.3961,0.0,6.7,38.0,8.0,'11111222,11111222,11111222' 
TCOON,ioos:station:TCOON:057:1,2013-04-03T23:00:00Z,28.4460,-96.3961,0.0,9.5,353.0,10.9,'11111222,11111222,11111222' 
TCOON,ioos:station:TCOON:057:1,2013-04-04T00:00:00Z,28.4460,-96.3961,0.0,11.2,350.0,13.2,'11111222,11111222,11111222' 
TCOON,ioos:station:TCOON:057:1,2013-04-04T01:00:00Z,28.4460,-96.3961,0.0,10.5,355.0,12.6,'11111222,11111222,11111222' 
TCOON,ioos:station:TCOON:057:1,2013-04-04T02:00:00Z,28.4460,-96.3961,0.0,11.1,345.0,13.1,'11111222,11111222,11111222' 
TCOON,ioos:station:TCOON:057:1,2013-04-04T03:00:00Z,28.4460,-96.3961,0.0,11.4,351.0,13.0,'11111222,11111222,11111222' 
TCOON,ioos:station:TCOON:057:1,2013-04-04T04:00:00Z,28.4460,-96.3961,0.0,9.4,6.0,11.5,'11111222,11111222,11111222' 
TCOON,ioos:station:TCOON:057:1,2013-04-04T05:00:00Z,28.4460,-96.3961,0.0,9.6,7.0,11.4,'11111222,11111222,11111222' 
TCOON,ioos:station:TCOON:057:1,2013-04-04T06:00:00Z,28.4460,-96.3961,0.0,7.6,359.0,9.7,'11111222,11111222,11111222' 
TCOON,ioos:station:TCOON:057:1,2013-04-04T07:00:00Z,28.4460,-96.3961,0.0,7.7,351.0,9.8,'11111222,11111222,11111222' 
TCOON,ioos:station:TCOON:057:1,2013-04-04T08:00:00Z,28.4460,-96.3961,0.0,5.2,355.0,6.5,'11111222,11111222,11111222' 
TCOON,ioos:station:TCOON:057:1,2013-04-04T09:00:00Z,28.4460,-96.3961,0.0,5.5,350.0,7.5,'11111222,11111222,11111222' 
TCOON,ioos:station:TCOON:057:1,2013-04-04T10:00:00Z,28.4460,-96.3961,0.0,8.2,329.0,10.5,'11111222,11111222,11111222' 
TCOON,ioos:station:TCOON:057:1,2013-04-04T11:00:00Z,28.4460,-96.3961,0.0,6.3,308.0,8.4,'11111222,11111222,11111222' 
TCOON,ioos:station:TCOON:057:1,2013-04-04T12:00:00Z,28.4460,-96.3961,0.0,9.0,329.0,10.5,'11111222,11111222,11111222' 
TCOON,ioos:station:TCOON:057:1,2013-04-04T13:00:00Z,28.4460,-96.3961,0.0,8.7,340.0,,'1111122,1111122,1111122' 
TCOON,ioos:station:TCOON:057:1,2013-04-04T14:00:00Z,28.4460,-96.3961,0.0,6.7,340.0,,'1111122,1111122,1111122' 
TCOON,ioos:station:TCOON:057:1,2013-04-04T15:00:00Z,28.4460,-96.3961,0.0,8.2,330.0,,'1111122,1111122,1111122' 
TCOON,ioos:station:TCOON:057:1,2013-04-04T16:00:00Z,28.4460,-96.3961,0.0,8.7,340.0,,'1111122,1111122,1111122' 
TCOON,ioos:station:TCOON:057:1,2013-04-04T17:00:00Z,28.4460,-96.3961,0.0,8.2,330.0,,'1111122,1111122,1111122' 
TCOON,ioos:station:TCOON:057:1,2013-04-04T18:00:00Z,28.4460,-96.3961,0.0,9.3,340.0,,'1111122,1111122,1111122' 
TCOON,ioos:station:TCOON:057:1,2013-04-04T19:00:00Z,28.4460,-96.3961,0.0,8.7,330.0,,'1111122,1111122,1111122' 
TCOON,ioos:station:TCOON:057:1,2013-04-04T20:00:00Z,28.4460,-96.3961,0.0,9.3,340.0,,'1111122,1111122,1111122' 
TCOON,ioos:station:TCOON:057:1,2013-04-04T21:00:00Z,28.4460,-96.3961,0.0,8.7,330.0,,'1111122,1111122,1111122' 
TCOON,ioos:station:TCOON:057:1,2013-04-04T22:00:00Z,28.4460,-96.3961,0.0,8.2,350.0,,'1111122,1111122,1111122' 
TCOON,ioos:station:TCOON:057:1,2013-04-04T23:00:00Z,28.4460,-96.3961,0.0,8.2,350.0,,'1111122,1111122,1111122' 
TCOON,ioos:station:TCOON:057:1,2013-04-05T00:00:00Z,28.4460,-96.3961,0.0,8.7,10.0,,'1111122,1111122,1111122' 
TCOON,ioos:station:TCOON:057:1,2013-04-05T01:00:00Z,28.4460,-96.3961,0.0,8.5,7.0,10.3,'11111222,11111222,11111222' 
TCOON,ioos:station:TCOON:057:1,2013-04-05T02:00:00Z,28.4460,-96.3961,0.0,8.7,20.0,,'1111122,1111122,1111122' 
TCOON,ioos:station:TCOON:057:1,2013-04-05T03:00:00Z,28.4460,-96.3961,0.0,8.7,20.0,,'1111122,1111122,1111122' 
TCOON,ioos:station:TCOON:057:1,2013-04-05T04:00:00Z,28.4460,-96.3961,0.0,9.8,30.0,,'1111122,1111122,1111122' 
TCOON,ioos:station:TCOON:057:1,2013-04-05T05:00:00Z,28.4460,-96.3961,0.0,8.7,30.0,,'1111122,1111122,1111122' 
TCOON,ioos:station:TCOON:057:1,2013-04-05T06:00:00Z,28.4460,-96.3961,0.0,9.3,30.0,,'1111122,1111122,1111122' 
TCOON,ioos:station:TCOON:057:1,2013-04-05T07:00:00Z,28.4460,-96.3961,0.0,8.2,20.0,,'1111122,1111122,1111122' 
TCOON,ioos:station:TCOON:057:1,2013-04-05T08:00:00Z,28.4460,-96.3961,0.0,7.7,40.0,,'1111122,1111122,1111122' 
TCOON,ioos:station:TCOON:057:1,2013-04-05T09:00:00Z,28.4460,-96.3961,0.0,6.2,30.0,,'1111122,1111122,1111122' 
TCOON,ioos:station:TCOON:057:1,2013-04-05T10:00:00Z,28.4460,-96.3961,0.0,8.2,30.0,,'1111122,1111122,1111122' 
TCOON,ioos:station:TCOON:057:1,2013-04-05T11:00:00Z,28.4460,-96.3961,0.0,7.7,30.0,,'1111122,1111122,1111122' 
TCOON,ioos:station:TCOON:057:1,2013-04-05T12:00:00Z,28.4460,-96.3961,0.0,7.2,30.0,,'1111122,1111122,1111122' 
TCOON,ioos:station:TCOON:057:1,2013-04-05T13:00:00Z,28.4460,-96.3961,0.0,8.2,50.0,,'1111122,1111122,1111122' 
TCOON,ioos:station:TCOON:057:1,2013-04-05T14:00:00Z,28.4460,-96.3961,0.0,9.3,50.0,,'1111122,1111122,1111122' 
TCOON,ioos:station:TCOON:057:1,2013-04-05T15:00:00Z,28.4460,-96.3961,0.0,5.1,40.0,,'1111122,1111122,1111122' 
TCOON,ioos:station:TCOON:057:1,2013-04-05T16:00:00Z,28.4460,-96.3961,0.0,2.6,30.0,,'1111122,1111122,1111122' 
TCOON,ioos:station:TCOON:057:1,2013-04-05T17:00:00Z,28.4460,-96.3961,0.0,2.6,60.0,,'1111122,1111122,1111122' 
TCOON,ioos:station:TCOON:057:1,2013-04-05T18:00:00Z,28.4460,-96.3961,0.0,2.6,70.0,,'1111122,1111122,1111122' 
TCOON,ioos:station:TCOON:057:1,2013-04-05T19:00:00Z,28.4460,-96.3961,0.0,3.1,130.0,,'1111122,1111122,1111122' 
TCOON,ioos:station:TCOON:057:1,2013-04-05T20:00:00Z,28.4460,-96.3961,0.0,4.1,130.0,,'1111122,1111122,1111122' 
TCOON,ioos:station:TCOON:057:1,2013-04-05T21:00:00Z,28.4460,-96.3961,0.0,4.6,140.0,,'1111122,1111122,1111122' 
TCOON,ioos:station:TCOON:057:1,2013-04-05T22:00:00Z,28.4460,-96.3961,0.0,5.1,150.0,,'1111122,1111122,1111122' 
TCOON,ioos:station:TCOON:057:1,2013-04-05T23:00:00Z,28.4460,-96.3961,0.0,5.1,150.0,,'1111122,1111122,1111122' 
TCOON,ioos:station:TCOON:057:1,2013-04-06T00:00:00Z,28.4460,-96.3961,0.0,5.1,160.0,,'1111122,1111122,1111122' 
TCOON,ioos:station:TCOON:057:1,2013-04-06T01:00:00Z,28.4460,-96.3961,0.0,5.7,150.0,,'1111122,1111122,1111122' 
TCOON,ioos:station:TCOON:057:1,2013-04-06T02:00:00Z,28.4460,-96.3961,0.0,99.0,-9999.0,99.0,'11144222,99999999,11144222' 
TCOON,ioos:station:TCOON:057:1,2013-04-06T03:00:00Z,28.4460,-96.3961,0.0,5.1,150.0,,'1111122,1111122,1111122' 
TCOON,ioos:station:TCOON:057:1,2013-04-06T04:00:00Z,28.4460,-96.3961,0.0,5.1,150.0,,'1111122,1111122,1111122' 
TCOON,ioos:station:TCOON:057:1,2013-04-06T05:00:00Z,28.4460,-96.3961,0.0,5.7,120.0,,'1111122,1111122,1111122' 
TCOON,ioos:station:TCOON:057:1,2013-04-06T06:00:00Z,28.4460,-96.3961,0.0,6.2,140.0,,'1111122,1111122,1111122' 
TCOON,ioos:station:TCOON:057:1,2013-04-06T07:00:00Z,28.4460,-96.3961,0.0,7.7,130.0,,'1111122,1111122,1111122' 
TCOON,ioos:station:TCOON:057:1,2013-04-06T08:00:00Z,28.4460,-96.3961,0.0,6.2,150.0,,'1111122,1111122,1111122' 
TCOON,ioos:station:TCOON:057:1,2013-04-06T09:00:00Z,28.4460,-96.3961,0.0,6.7,150.0,,'1111122,1111122,1111122' 
TCOON,ioos:station:TCOON:057:1,2013-04-06T10:00:00Z,28.4460,-96.3961,0.0,8.2,150.0,,'1111122,1111122,1111122' 
TCOON,ioos:station:TCOON:057:1,2013-04-06T11:00:00Z,28.4460,-96.3961,0.0,8.2,160.0,,'1111122,1111122,1111122' 
TCOON,ioos:station:TCOON:057:1,2013-04-06T12:00:00Z,28.4460,-96.3961,0.0,7.7,160.0,,'1111122,1111122,1111122' 
TCOON,ioos:station:TCOON:057:1,2013-04-06T13:00:00Z,28.4460,-96.3961,0.0,7.7,170.0,,'1111122,1111122,1111122' 
TCOON,ioos:station:TCOON:057:1,2013-04-06T14:00:00Z,28.4460,-96.3961,0.0,7.2,160.0,,'1111122,1111122,1111122' 
TCOON,ioos:station:TCOON:057:1,2013-04-06T15:00:00Z,28.4460,-96.3961,0.0,7.2,160.0,,'1111122,1111122,1111122' 
TCOON,ioos:station:TCOON:057:1,2013-04-06T16:00:00Z,28.4460,-96.3961,0.0,7.7,160.0,,'1111122,1111122,1111122' 
TCOON,ioos:station:TCOON:057:1,2013-04-06T17:00:00Z,28.4460,-96.3961,0.0,6.2,170.0,,'1111122,1111122,1111122' 
TCOON,ioos:station:TCOON:057:1,2013-04-06T18:00:00Z,28.4460,-96.3961,0.0,6.7,170.0,,'1111122,1111122,1111122' 
TCOON,ioos:station:TCOON:057:1,2013-04-06T19:00:00Z,28.4460,-96.3961,0.0,7.2,170.0,,'1111122,1111122,1111122' 
TCOON,ioos:station:TCOON:057:1,2013-04-06T20:00:00Z,28.4460,-96.3961,0.0,7.2,160.0,,'1111122,1111122,1111122' 
TCOON,ioos:station:TCOON:057:1,2013-04-06T21:00:00Z,28.4460,-96.3961,0.0,6.2,160.0,,'1111122,1111122,1111122' 
TCOON,ioos:station:TCOON:057:1,2013-04-06T22:00:00Z,28.4460,-96.3961,0.0,6.7,160.0,,'1111122,1111122,1111122' 
TCOON,ioos:station:TCOON:057:1,2013-04-06T23:00:00Z,28.4460,-96.3961,0.0,5.1,150.0,,'1111122,1111122,1111122' 
TCOON,ioos:station:TCOON:057:1,2013-04-07T00:00:00Z,28.4460,-96.3961,0.0,5.7,140.0,,'1111122,1111122,1111122' 
TCOON,ioos:station:TCOON:057:1,2013-04-07T01:00:00Z,28.4460,-96.3961,0.0,6.2,140.0,,'1111122,1111122,1111122' 
TCOON,ioos:station:TCOON:057:1,2013-04-07T02:00:00Z,28.4460,-96.3961,0.0,5.7,150.0,,'1111122,1111122,1111122' 
TCOON,ioos:station:TCOON:057:1,2013-04-07T03:00:00Z,28.4460,-96.3961,0.0,6.2,150.0,,'1111122,1111122,1111122' 
TCOON,ioos:station:TCOON:057:1,2013-04-07T04:00:00Z,28.4460,-96.3961,0.0,6.2,150.0,,'1111122,1111122,1111122' 
TCOON,ioos:station:TCOON:057:1,2013-04-07T05:00:00Z,28.4460,-96.3961,0.0,5.7,150.0,,'1111122,1111122,1111122' 
TCOON,ioos:station:TCOON:057:1,2013-04-07T06:00:00Z,28.4460,-96.3961,0.0,5.7,150.0,,'1111122,1111122,1111122' 
TCOON,ioos:station:TCOON:057:1,2013-04-07T07:00:00Z,28.4460,-96.3961,0.0,5.7,160.0,,'1111122,1111122,1111122' 
TCOON,ioos:station:TCOON:057:1,2013-04-07T08:00:00Z,28.4460,-96.3961,0.0,5.1,170.0,,'1111122,1111122,1111122' 
TCOON,ioos:station:TCOON:057:1,2013-04-07T09:00:00Z,28.4460,-96.3961,0.0,6.7,160.0,,'1111122,1111122,1111122' 
TCOON,ioos:station:TCOON:057:1,2013-04-07T10:00:00Z,28.4460,-96.3961,0.0,7.2,160.0,,'1111122,1111122,1111122' 
TCOON,ioos:station:TCOON:057:1,2013-04-07T11:00:00Z,28.4460,-96.3961,0.0,6.2,160.0,,'1111122,1111122,1111122' 
TCOON,ioos:station:TCOON:057:1,2013-04-07T12:00:00Z,28.4460,-96.3961,0.0,5.1,150.0,,'1111122,1111122,1111122' 
TCOON,ioos:station:TCOON:057:1,2013-04-07T13:00:00Z,28.4460,-96.3961,0.0,5.1,150.0,,'1111122,1111122,1111122' 
TCOON,ioos:station:TCOON:057:1,2013-04-07T14:00:00Z,28.4460,-96.3961,0.0,4.6,140.0,,'1111122,1111122,1111122' 
TCOON,ioos:station:TCOON:057:1,2013-04-07T15:00:00Z,28.4460,-96.3961,0.0,5.1,150.0,,'1111122,1111122,1111122' 
TCOON,ioos:station:TCOON:057:1,2013-04-07T16:00:00Z,28.4460,-96.3961,0.0,5.1,140.0,,'1111122,1111122,1111122' 
TCOON,ioos:station:TCOON:057:1,2013-04-07T17:00:00Z,28.4460,-96.3961,0.0,5.7,140.0,,'1111122,1111122,1111122' 
TCOON,ioos:station:TCOON:057:1,2013-04-07T18:00:00Z,28.4460,-96.3961,0.0,6.7,150.0,,'1111122,1111122,1111122' 
TCOON,ioos:station:TCOON:057:1,2013-04-07T19:00:00Z,28.4460,-96.3961,0.0,7.2,150.0,,'1111122,1111122,1111122' 
TCOON,ioos:station:TCOON:057:1,2013-04-07T20:00:00Z,28.4460,-96.3961,0.0,7.2,140.0,,'1111122,1111122,1111122' 
TCOON,ioos:station:TCOON:057:1,2013-04-07T21:00:00Z,28.4460,-96.3961,0.0,7.2,140.0,,'1111122,1111122,1111122' 
TCOON,ioos:station:TCOON:057:1,2013-04-07T22:00:00Z,28.4460,-96.3961,0.0,8.7,140.0,,'1111122,1111122,1111122' 
TCOON,ioos:station:TCOON:057:1,2013-04-07T23:00:00Z,28.4460,-96.3961,0.0,6.7,140.0,,'1111122,1111122,1111122' 
TCOON,ioos:station:TCOON:057:1,2013-04-08T00:00:00Z,28.4460,-96.3961,0.0,6.7,140.0,,'1111122,1111122,1111122' 
TCOON,ioos:station:TCOON:057:1,2013-04-08T01:00:00Z,28.4460,-96.3961,0.0,6.7,140.0,,'1111122,1111122,1111122' 
TCOON,ioos:station:TCOON:057:1,2013-04-08T02:00:00Z,28.4460,-96.3961,0.0,6.7,140.0,,'1111122,1111122,1111122' 
TCOON,ioos:station:TCOON:057:1,2013-04-08T03:00:00Z,28.4460,-96.3961,0.0,6.7,140.0,,'1111122,1111122,1111122' 
TCOON,ioos:station:TCOON:057:1,2013-04-08T04:00:00Z,28.4460,-96.3961,0.0,6.2,150.0,,'1111122,1111122,1111122' 
TCOON,ioos:station:TCOON:057:1,2013-04-08T05:00:00Z,28.4460,-96.3961,0.0,7.2,150.0,,'1111122,1111122,1111122' 
TCOON,ioos:station:TCOON:057:1,2013-04-08T06:00:00Z,28.4460,-96.3961,0.0,6.7,160.0,,'1111122,1111122,1111122' 
TCOON,ioos:station:TCOON:057:1,2013-04-08T07:00:00Z,28.4460,-96.3961,0.0,6.2,160.0,,'1111122,1111122,1111122' 
TCOON,ioos:station:TCOON:057:1,2013-04-08T08:00:00Z,28.4460,-96.3961,0.0,6.2,160.0,,'1111122,1111122,1111122' 
TCOON,ioos:station:TCOON:057:1,2013-04-08T09:00:00Z,28.4460,-96.3961,0.0,5.1,140.0,,'1111122,1111122,1111122' 
TCOON,ioos:station:TCOON:057:1,2013-04-08T10:00:00Z,28.4460,-96.3961,0.0,5.7,140.0,,'1111122,1111122,1111122' 
TCOON,ioos:station:TCOON:057:1,2013-04-08T11:00:00Z,28.4460,-96.3961,0.0,6.2,120.0,,'1111122,1111122,1111122' 
TCOON,ioos:station:TCOON:057:1,2013-04-08T12:00:00Z,28.4460,-96.3961,0.0,5.7,130.0,,'1111122,1111122,1111122' 
TCOON,ioos:station:TCOON:057:1,2013-04-08T13:00:00Z,28.4460,-96.3961,0.0,6.7,140.0,,'1111122,1111122,1111122' 
TCOON,ioos:station:TCOON:057:1,2013-04-08T14:00:00Z,28.4460,-96.3961,0.0,6.2,140.0,,'1111122,1111122,1111122' 
TCOON,ioos:station:TCOON:057:1,2013-04-08T15:00:00Z,28.4460,-96.3961,0.0,6.7,140.0,,'1111122,1111122,1111122' 
TCOON,ioos:station:TCOON:057:1,2013-04-08T16:00:00Z,28.4460,-96.3961,0.0,6.2,160.0,,'1111122,1111122,1111122' 
TCOON,ioos:station:TCOON:057:1,2013-04-08T17:00:00Z,28.4460,-96.3961,0.0,7.4,144.0,8.8,'11111222,11111222,11111222' 
TCOON,ioos:station:TCOON:057:1,2013-04-08T18:00:00Z,28.4460,-96.3961,0.0,8.1,143.0,9.2,'11111222,11111222,11111222' 
TCOON,ioos:station:TCOON:057:1,2013-04-08T19:00:00Z,28.4460,-96.3961,0.0,9.6,141.0,11.8,'11111222,11111222,11111222' 
TCOON,ioos:station:TCOON:057:1,2013-04-08T20:00:00Z,28.4460,-96.3961,0.0,8.6,137.0,10.1,'11111222,11111222,11111222' 
TCOON,ioos:station:TCOON:057:1,2013-04-08T21:00:00Z,28.4460,-96.3961,0.0,8.2,135.0,10.0,'11111222,11111222,11111222' 
TCOON,ioos:station:TCOON:057:1,2013-04-08T22:00:00Z,28.4460,-96.3961,0.0,8.0,129.0,9.9,'11111222,11111222,11111222' 
TCOON,ioos:station:TCOON:057:1,2013-04-08T23:00:00Z,28.4460,-96.3961,0.0,8.7,130.0,,'1111122,1111122,1111122' 
TCOON,ioos:station:TCOON:057:1,2013-04-09T00:00:00Z,28.4460,-96.3961,0.0,8.7,120.0,,'1111122,1111122,1111122' 
TCOON,ioos:station:TCOON:057:1,2013-04-09T01:00:00Z,28.4460,-96.3961,0.0,8.2,120.0,,'1111122,1111122,1111122' 
TCOON,ioos:station:TCOON:057:1,2013-04-09T02:00:00Z,28.4460,-96.3961,0.0,7.7,120.0,,'1111122,1111122,1111122' 
TCOON,ioos:station:TCOON:057:1,2013-04-09T03:00:00Z,28.4460,-96.3961,0.0,8.2,130.0,,'1111122,1111122,1111122' 
TCOON,ioos:station:TCOON:057:1,2013-04-09T04:00:00Z,28.4460,-96.3961,0.0,7.7,130.0,,'1111122,1111122,1111122' 
TCOON,ioos:station:TCOON:057:1,2013-04-09T05:00:00Z,28.4460,-96.3961,0.0,7.2,140.0,,'1111122,1111122,1111122' 
TCOON,ioos:station:TCOON:057:1,2013-04-09T06:00:00Z,28.4460,-96.3961,0.0,7.7,140.0,,'1111122,1111122,1111122' 
TCOON,ioos:station:TCOON:057:1,2013-04-09T07:00:00Z,28.4460,-96.3961,0.0,7.7,150.0,,'1111122,1111122,1111122' 
TCOON,ioos:station:TCOON:057:1,2013-04-09T08:00:00Z,28.4460,-96.3961,0.0,7.7,150.0,,'1111122,1111122,1111122' 
TCOON,ioos:station:TCOON:057:1,2013-04-09T09:00:00Z,28.4460,-96.3961,0.0,7.7,140.0,,'1111122,1111122,1111122' 
TCOON,ioos:station:TCOON:057:1,2013-04-09T10:00:00Z,28.4460,-96.3961,0.0,7.2,130.0,,'1111122,1111122,1111122' 
TCOON,ioos:station:TCOON:057:1,2013-04-09T11:00:00Z,28.4460,-96.3961,0.0,8.2,120.0,,'1111122,1111122,1111122' 
TCOON,ioos:station:TCOON:057:1,2013-04-09T12:00:00Z,28.4460,-96.3961,0.0,7.7,120.0,,'1111122,1111122,1111122' 
TCOON,ioos:station:TCOON:057:1,2013-04-09T13:00:00Z,28.4460,-96.3961,0.0,9.3,130.0,,'1111122,1111122,1111122' 
TCOON,ioos:station:TCOON:057:1,2013-04-09T14:00:00Z,28.4460,-96.3961,0.0,7.7,140.0,,'1111122,1111122,1111122' 
TCOON,ioos:station:TCOON:057:1,2013-04-09T15:00:00Z,28.4460,-96.3961,0.0,8.7,130.0,,'1111122,1111122,1111122' 
TCOON,ioos:station:TCOON:057:1,2013-04-09T16:00:00Z,28.4460,-96.3961,0.0,8.7,130.0,,'1111122,1111122,1111122' 
TCOON,ioos:station:TCOON:057:1,2013-04-09T17:00:00Z,28.4460,-96.3961,0.0,8.7,140.0,,'1111122,1111122,1111122' 
TCOON,ioos:station:TCOON:057:1,2013-04-09T18:00:00Z,28.4460,-96.3961,0.0,7.7,130.0,,'1111122,1111122,1111122' 
TCOON,ioos:station:TCOON:057:1,2013-04-09T19:00:00Z,28.4460,-96.3961,0.0,8.7,140.0,,'1111122,1111122,1111122' 